This is the latest recevied weather packets stored in our database for station/object LX0WX-13. If no packets are shown the sender has not sent any weather packets the latest 10 day(s).
| Time | Temp. | Humidity | Pressure | Rain* | Wind** | Luminosity | Snow |
|---|---|---|---|---|---|---|---|
| 1777821958 | 13.33° C | 78% | 1009.6 hPa | 0 mm | - | - | - |
| 1777821659 | 13.33° C | 78% | 1009.6 hPa | 0 mm | - | - | - |
| 1777821358 | 13.33° C | 77% | 1009.6 hPa | 0 mm | - | - | - |
| 1777821059 | 13.89° C | 78% | 1009.7 hPa | 0 mm | - | - | - |
| 1777820758 | 13.33° C | 77% | 1009.6 hPa | 0 mm | - | - | - |
| 1777820459 | 13.89° C | 78% | 1009.7 hPa | 0 mm | - | - | - |
| 1777820159 | 13.89° C | 78% | 1009.8 hPa | 0 mm | - | - | - |
| 1777819859 | 13.89° C | 78% | 1009.8 hPa | 0 mm | - | - | - |
| 1777819559 | 13.89° C | 79% | 1009.8 hPa | 0.51 mm | - | - | - |
| 1777819259 | 13.33° C | 79% | 1009.8 hPa | 0.51 mm | - | - | - |
| 1777818959 | 13.33° C | 79% | 1010 hPa | 0.51 mm | - | - | - |
| 1777818659 | 13.33° C | 79% | 1010 hPa | 0.51 mm | - | - | - |
| 1777818359 | 12.78° C | 79% | 1010 hPa | 0.51 mm | - | - | - |
| 1777818059 | 12.78° C | 79% | 1010 hPa | 0.51 mm | - | - | - |
| 1777817759 | 12.78° C | 78% | 1010 hPa | 0.51 mm | - | - | - |
| 1777817459 | 12.78° C | 77% | 1010.2 hPa | 0.51 mm | - | - | - |
| 1777817159 | 12.78° C | 75% | 1010.1 hPa | 0.51 mm | - | - | - |
| 1777816859 | 12.78° C | 74% | 1010.2 hPa | 0.51 mm | - | - | - |
| 1777816559 | 12.78° C | 73% | 1010.2 hPa | 0.51 mm | - | - | - |
| 1777816259 | 12.78° C | 71% | 1010.2 hPa | 0.51 mm | - | - | - |
| 1777815959 | 13.33° C | 69% | 1010.3 hPa | 0 mm | - | - | - |
| 1777815659 | 13.89° C | 68% | 1010.3 hPa | 0 mm | - | - | - |
| 1777815359 | 13.89° C | 66% | 1010.2 hPa | 0 mm | - | - | - |
| 1777815059 | 14.44° C | 63% | 1010.2 hPa | 0 mm | - | - | - |
| 1777814759 | 14.44° C | 62% | 1010.1 hPa | 0 mm | - | - | - |
* Rain latest hour (hover to see other rain measurements)
** Current wind speed in m/s (hover to see current wind gust speed)